Time,TemperatureF,DewpointF,PressureIn,WindDirection,WindDirectionDegrees,WindSpeedMPH,WindSpeedGustMPH,Humidity,HourlyPrecipIn,Conditions,Clouds,dailyrainin,SoftwareType,DateUTC
2013-07-09 00:02:00,62.0,29.0,-100.00,SSE,161,1.0,3.0,28,-99.99,,,-99.99,,2013-07-09 07:02:00,
2013-07-09 00:11:00,62.0,29.0,-100.00,SSE,161,1.0,3.0,28,-99.99,,,-99.99,,2013-07-09 07:11:00,
2013-07-09 00:22:00,63.0,28.0,-100.00,SSE,161,1.0,3.0,26,-99.99,,,-99.99,,2013-07-09 07:22:00,
2013-07-09 00:33:00,63.0,28.0,-100.00,SSE,161,1.0,3.0,26,-99.99,,,-99.99,,2013-07-09 07:33:00,
2013-07-09 00:42:00,64.0,26.0,-100.00,East,96,1.0,3.0,24,-99.99,,,-99.99,,2013-07-09 07:42:00,
2013-07-09 00:53:00,62.0,25.0,-100.00,East,96,1.0,3.0,24,-99.99,,,-99.99,,2013-07-09 07:53:00,
2013-07-09 01:01:00,62.0,25.0,-100.00,SE,137,1.0,3.0,24,-99.99,,,-99.99,,2013-07-09 08:01:00,
2013-07-09 01:11:00,62.0,25.0,-100.00,SE,137,1.0,3.0,24,-99.99,,,-99.99,,2013-07-09 08:11:00,
2013-07-09 01:22:00,61.0,26.0,-100.00,SSE,158,1.0,2.0,26,-99.99,,,-99.99,,2013-07-09 08:22:00,
2013-07-09 01:33:00,61.0,26.0,-100.00,SSE,158,1.0,2.0,26,-99.99,,,-99.99,,2013-07-09 08:33:00,
2013-07-09 01:43:00,61.0,26.0,-100.00,SSE,158,1.0,2.0,26,-99.99,,,-99.99,,2013-07-09 08:43:00,
2013-07-09 02:02:00,61.0,32.0,-100.00,South,174,1.0,2.0,33,-99.99,,,-99.99,,2013-07-09 09:02:00,
2013-07-09 02:11:00,61.0,32.0,-100.00,South,174,1.0,2.0,33,-99.99,,,-99.99,,2013-07-09 09:11:00,
2013-07-09 02:22:00,61.0,29.0,-100.00,South,172,1.0,2.0,30,-99.99,,,-99.99,,2013-07-09 09:22:00,
2013-07-09 02:34:00,61.0,29.0,-100.00,South,172,1.0,2.0,30,-99.99,,,-99.99,,2013-07-09 09:34:00,
2013-07-09 02:42:00,61.0,29.0,-100.00,South,172,1.0,2.0,30,-99.99,,,-99.99,,2013-07-09 09:42:00,
2013-07-09 03:01:00,60.0,30.0,-100.00,SSE,168,1.0,2.0,32,-99.99,,,-99.99,,2013-07-09 10:01:00,
2013-07-09 03:33:00,60.0,26.0,-100.00,SSE,168,1.0,3.0,27,-99.99,,,-99.99,,2013-07-09 10:33:00,
2013-07-09 03:42:00,60.0,26.0,-100.00,SSE,168,1.0,3.0,27,-99.99,,,-99.99,,2013-07-09 10:42:00,
2013-07-09 03:52:00,60.0,26.0,-100.00,SSE,165,1.0,3.0,27,-99.99,,,-99.99,,2013-07-09 10:52:00,
2013-07-09 04:01:00,60.0,26.0,-100.00,SSE,165,1.0,3.0,27,-99.99,,,-99.99,,2013-07-09 11:01:00,
2013-07-09 04:11:00,60.0,26.0,-100.00,SSE,165,1.0,3.0,27,-99.99,,,-99.99,,2013-07-09 11:11:00,
2013-07-09 04:33:00,59.0,24.0,-100.00,SSE,165,0.0,2.0,26,-99.99,,,-99.99,,2013-07-09 11:33:00,
2013-07-09 04:42:00,59.0,24.0,-100.00,SSE,165,0.0,2.0,26,-99.99,,,-99.99,,2013-07-09 11:42:00,
2013-07-09 05:11:00,58.0,27.0,-100.00,SSE,164,1.0,2.0,30,-99.99,,,-99.99,,2013-07-09 12:11:00,
2013-07-09 05:22:00,58.0,27.0,-100.00,SSE,164,1.0,2.0,30,-99.99,,,-99.99,,2013-07-09 12:22:00,
2013-07-09 05:33:00,58.0,27.0,-100.00,SSE,164,1.0,2.0,30,-99.99,,,-99.99,,2013-07-09 12:33:00,
2013-07-09 05:43:00,58.0,27.0,-100.00,SSE,167,1.0,2.0,30,-99.99,,,-99.99,,2013-07-09 12:43:00,
2013-07-09 05:52:00,58.0,27.0,-100.00,North,-999,-999.0,-999.0,31,-99.99,,,-99.99,,2013-07-09 12:52:00,
2013-07-09 07:22:00,57.0,30.0,-100.00,South,172,0.0,2.0,36,-99.99,,,-99.99,,2013-07-09 14:22:00,
2013-07-09 07:34:00,57.0,30.0,-100.00,South,172,0.0,2.0,36,-99.99,,,-99.99,,2013-07-09 14:34:00,
2013-07-09 07:43:00,58.0,40.0,-100.00,SSE,168,0.0,1.0,51,-99.99,,,-99.99,,2013-07-09 14:43:00,
2013-07-09 07:53:00,58.0,40.0,-100.00,SSE,168,0.0,1.0,51,-99.99,,,-99.99,,2013-07-09 14:53:00,
2013-07-09 08:22:00,60.0,41.0,-100.00,East,88,0.0,3.0,50,-99.99,,,-99.99,,2013-07-09 15:22:00,
2013-07-09 08:33:00,60.0,41.0,-100.00,East,88,0.0,3.0,50,-99.99,,,-99.99,,2013-07-09 15:33:00,
2013-07-09 08:43:00,62.0,42.0,-100.00,NNW,335,0.0,3.0,47,-99.99,,,-99.99,,2013-07-09 15:43:00,
2013-07-09 08:52:00,62.0,42.0,-100.00,NNW,335,0.0,3.0,47,-99.99,,,-99.99,,2013-07-09 15:52:00,
2013-07-09 09:01:00,64.0,40.0,-100.00,NNW,330,0.0,3.0,42,-99.99,,,-99.99,,2013-07-09 16:01:00,
2013-07-09 09:11:00,64.0,40.0,-100.00,NNW,330,0.0,3.0,42,-99.99,,,-99.99,,2013-07-09 16:11:00,
2013-07-09 09:33:00,65.0,45.0,-100.00,NNW,335,1.0,5.0,49,-99.99,,,-99.99,,2013-07-09 16:33:00,
2013-07-09 09:43:00,65.0,45.0,-100.00,NNW,335,1.0,5.0,49,-99.99,,,-99.99,,2013-07-09 16:43:00,
2013-07-09 10:53:00,66.0,49.0,-100.00,WNW,291,1.0,4.0,55,-99.99,,,-99.99,,2013-07-09 17:53:00,
2013-07-09 11:32:00,74.0,39.0,-100.00,North,-999,-999.0,-999.0,28,-99.99,,,-99.99,,2013-07-09 18:32:00,
2013-07-09 11:43:00,74.0,39.0,-100.00,NW,320,1.0,5.0,28,-99.99,,,-99.99,,2013-07-09 18:43:00,
2013-07-09 11:52:00,74.0,39.0,-100.00,NW,320,1.0,5.0,28,-99.99,,,-99.99,,2013-07-09 18:52:00,
2013-07-09 12:01:00,74.0,39.0,-100.00,NW,320,1.0,5.0,28,-99.99,,,-99.99,,2013-07-09 19:01:00,
2013-07-09 12:42:00,77.0,43.0,-100.00,WNW,299,2.0,5.0,30,-99.99,,,-99.99,,2013-07-09 19:42:00,
2013-07-09 12:52:00,77.0,43.0,-100.00,WNW,299,2.0,5.0,30,-99.99,,,-99.99,,2013-07-09 19:52:00,
2013-07-09 13:32:00,77.0,40.0,-100.00,NW,305,2.0,6.0,27,-99.99,,,-99.99,,2013-07-09 20:32:00,
2013-07-09 13:42:00,77.0,40.0,-100.00,NW,305,2.0,6.0,27,-99.99,,,-99.99,,2013-07-09 20:42:00,
2013-07-09 14:01:00,78.0,39.0,-100.00,NW,316,2.0,5.0,25,-99.99,,,-99.99,,2013-07-09 21:01:00,
2013-07-09 14:11:00,78.0,39.0,-100.00,NW,316,2.0,5.0,25,-99.99,,,-99.99,,2013-07-09 21:11:00,
2013-07-09 14:32:00,80.0,35.0,-100.00,NNW,330,2.0,5.0,20,-99.99,,,-99.99,,2013-07-09 21:32:00,
2013-07-09 14:42:00,80.0,35.0,-100.00,NNW,330,2.0,5.0,20,-99.99,,,-99.99,,2013-07-09 21:42:00,
2013-07-09 14:52:00,81.0,37.0,-100.00,NNW,328,1.0,5.0,21,-99.99,,,-99.99,,2013-07-09 21:52:00,
2013-07-09 15:01:00,81.0,37.0,-100.00,NNW,328,1.0,5.0,21,-99.99,,,-99.99,,2013-07-09 22:01:00,
2013-07-09 15:22:00,82.0,38.0,-100.00,NNW,337,1.0,5.0,21,-99.99,,,-99.99,,2013-07-09 22:22:00,
2013-07-09 15:33:00,81.0,36.0,-100.00,NNW,340,1.0,5.0,20,-99.99,,,-99.99,,2013-07-09 22:33:00,
2013-07-09 15:42:00,81.0,36.0,-100.00,NNW,340,1.0,5.0,20,-99.99,,,-99.99,,2013-07-09 22:42:00,
2013-07-09 15:53:00,82.0,42.0,-100.00,NNW,336,1.0,5.0,24,-99.99,,,-99.99,,2013-07-09 22:53:00,
2013-07-09 16:01:00,82.0,42.0,-100.00,NNW,336,1.0,5.0,24,-99.99,,,-99.99,,2013-07-09 23:01:00,
2013-07-09 16:33:00,79.0,44.0,-100.00,NNE,16,2.0,5.0,29,-99.99,,,-99.99,,2013-07-09 23:33:00,
2013-07-09 16:43:00,79.0,44.0,-100.00,NNE,16,2.0,5.0,29,-99.99,,,-99.99,,2013-07-09 23:43:00,
2013-07-09 16:53:00,79.0,44.0,-100.00,NNE,16,2.0,5.0,29,-99.99,,,-99.99,,2013-07-09 23:53:00,
2013-07-09 17:01:00,81.0,46.0,-100.00,NNW,339,1.0,5.0,29,-99.99,,,-99.99,,2013-07-10 00:01:00,
2013-07-09 17:11:00,81.0,46.0,-100.00,NNW,339,1.0,5.0,29,-99.99,,,-99.99,,2013-07-10 00:11:00,
2013-07-09 17:33:00,81.0,47.0,-100.00,North,354,1.0,4.0,31,-99.99,,,-99.99,,2013-07-10 00:33:00,
2013-07-09 17:42:00,80.0,45.0,-100.00,North,1,1.0,5.0,29,-99.99,,,-99.99,,2013-07-10 00:42:00,
2013-07-09 17:52:00,80.0,45.0,-100.00,North,1,1.0,5.0,29,-99.99,,,-99.99,,2013-07-10 00:52:00,
2013-07-09 18:01:00,77.0,39.0,-100.00,NNE,27,3.0,9.0,26,-99.99,,,-99.99,,2013-07-10 01:01:00,
2013-07-09 18:11:00,77.0,39.0,-100.00,NNE,27,3.0,9.0,26,-99.99,,,-99.99,,2013-07-10 01:11:00,
2013-07-09 18:22:00,78.0,48.0,-100.00,North,353,1.0,4.0,35,-99.99,,,-99.99,,2013-07-10 01:22:00,
2013-07-09 18:33:00,78.0,48.0,-100.00,North,353,1.0,4.0,35,-99.99,,,-99.99,,2013-07-10 01:33:00,
2013-07-09 18:43:00,77.0,44.0,-100.00,NNE,24,2.0,5.0,31,-99.99,,,-99.99,,2013-07-10 01:43:00,
2013-07-09 18:53:00,77.0,44.0,-100.00,NNE,24,2.0,5.0,31,-99.99,,,-99.99,,2013-07-10 01:53:00,
2013-07-09 19:01:00,74.0,41.0,-100.00,NE,45,3.0,6.0,31,-99.99,,,-99.99,,2013-07-10 02:01:00,
2013-07-09 19:11:00,74.0,41.0,-100.00,NE,45,3.0,6.0,31,-99.99,,,-99.99,,2013-07-10 02:11:00,
2013-07-09 19:31:00,71.0,43.0,-100.00,NNE,20,1.0,5.0,37,-99.99,,,-99.99,,2013-07-10 02:31:00,
2013-07-09 19:34:00,76.0,47.0,-100.00,North,4,1.0,4.0,36,-99.99,,,-99.99,,2013-07-10 02:34:00,
2013-07-09 19:42:00,73.0,47.0,-100.00,NNE,32,3.0,7.0,40,-99.99,,,-99.99,,2013-07-10 02:42:00,
2013-07-09 19:53:00,73.0,47.0,-100.00,NNE,32,3.0,7.0,40,-99.99,,,-99.99,,2013-07-10 02:53:00,
2013-07-09 20:01:00,71.0,43.0,-100.00,NNE,20,1.0,5.0,37,-99.99,,,-99.99,,2013-07-10 03:01:00,
2013-07-09 20:11:00,71.0,43.0,-100.00,NNE,20,1.0,5.0,37,-99.99,,,-99.99,,2013-07-10 03:11:00,
2013-07-09 20:22:00,71.0,43.0,-100.00,NNE,20,1.0,5.0,37,-99.99,,,-99.99,,2013-07-10 03:22:00,
2013-07-09 21:11:00,65.0,47.0,-100.00,SSE,157,0.0,2.0,52,-99.99,,,-99.99,,2013-07-10 04:11:00,
2013-07-09 21:22:00,65.0,47.0,-100.00,SSE,157,0.0,2.0,52,-99.99,,,-99.99,,2013-07-10 04:22:00,
2013-07-09 21:32:00,65.0,47.0,-100.00,SSE,157,0.0,2.0,52,-99.99,,,-99.99,,2013-07-10 04:32:00,
2013-07-09 21:43:00,64.0,42.0,-100.00,North,-999,-999.0,-999.0,43,-99.99,,,-99.99,,2013-07-10 04:43:00,
2013-07-09 21:52:00,64.0,41.0,-100.00,SSE,167,1.0,3.0,43,-99.99,,,-99.99,,2013-07-10 04:52:00,
2013-07-09 22:00:00,63.0,38.0,-100.00,South,169,0.0,2.0,40,-99.99,,,-99.99,,2013-07-10 05:00:00,
2013-07-09 22:02:00,64.0,41.0,-100.00,SSE,167,1.0,3.0,43,-99.99,,,-99.99,,2013-07-10 05:02:00,
2013-07-09 22:11:00,63.0,40.0,-100.00,South,171,1.0,2.0,42,-99.99,,,-99.99,,2013-07-10 05:11:00,
2013-07-09 22:22:00,63.0,40.0,-100.00,South,171,1.0,2.0,42,-99.99,,,-99.99,,2013-07-10 05:22:00,
2013-07-09 22:32:00,63.0,38.0,-100.00,South,169,0.0,2.0,40,-99.99,,,-99.99,,2013-07-10 05:32:00,
2013-07-09 22:42:00,63.0,38.0,-100.00,South,169,0.0,2.0,40,-99.99,,,-99.99,,2013-07-10 05:42:00,
2013-07-09 22:52:00,63.0,38.0,-100.00,South,169,0.0,2.0,40,-99.99,,,-99.99,,2013-07-10 05:52:00,
2013-07-09 23:11:00,62.0,36.0,-100.00,North,-999,-999.0,-999.0,38,-99.99,,,-99.99,,2013-07-10 06:11:00,
2013-07-09 23:21:00,62.0,36.0,-100.00,South,169,1.0,2.0,38,-99.99,,,-99.99,,2013-07-10 06:21:00,
2013-07-09 23:32:00,62.0,36.0,-100.00,South,169,1.0,2.0,38,-99.99,,,-99.99,,2013-07-10 06:32:00,
2013-07-09 23:42:00,61.0,36.0,-100.00,SSE,168,0.0,1.0,39,-99.99,,,-99.99,,2013-07-10 06:42:00,
2013-07-09 23:52:00,61.0,36.0,-100.00,SSE,168,0.0,1.0,39,-99.99,,,-99.99,,2013-07-10 06:52:00,